Flag for Mexico Weather past 2 weeks in Mexico City, Federal District, Mexico

Now
64 °F

Mostly cloudy.


Feels Like: 64 °F
Forecast: 58 / 72 °F
Wind: 14 mph from West

Location: Mexico City / Licenci

Current Time: Jul 30, 2014 at 10:59:36 PM

Latest Report: Jul 30, 2014 at 8:41 PM


Visibility: 8 mi

Pressure: 30.34 "Hg

Humidity: 64%

Dew point: 52 °F

Location of Mexico CityLocation

Historic Weather in Mexico City — Graph

°F

Mexico City temperature yesterday

Maximum temperature yesterday: 75 °F (at 4:46 PM)
Minimum temperature yesterday: 54 °F (at 2:41 AM)
Average temperature yesterday: 62 °F

Past Weeks' High & Low Weather Summary

 TemperatureHumidityPressure
High81 °F (Jul 21, 5:10 PM)94% (Jul 16, 7:18 PM)30.48 "Hg (Jul 16, 7:18 PM)
Low54 °F (Jul 24, 5:45 AM)23% (Jul 21, 5:10 PM)29.56 "Hg (Jul 20, 7:27 PM)
Average63 °F66%30.26 "Hg
* Reported Jul 15 8:18 PM — Jul 30 8:41 PM, Mexico City, Weather by CustomWeather, © 2014

Note: Actual official high and low records may vary slightly from our data, if they occured in-between our weather recording intervals... More about our weather records

Advertising

Mexico City weather history for previous 24 hours

 ConditionsComfort  
Time TempWeatherWind HumidityBarometerVisibility
8:41 PM
Jul 30
64 °FMostly cloudy.14 mph64%30.34 "Hg8 mi
7:54 PM64 °FMostly cloudy.14 mph60%30.31 "Hg6 mi
5:52 PM72 °FMostly cloudy.9 mph47%30.26 "Hg7 mi
5:16 PM72 °FSleet. Cloudy.N/A53%30.27 "HgN/A
12:49 PM70 °FScattered clouds.2 mph50%29.86 "Hg6 mi
10:22 AM64 °FBroken clouds.5 mph68%30.43 "Hg7 mi
9:45 AM61 °FMostly cloudy.7 mph77%29.93 "Hg7 mi
9:21 AM59 °FMostly cloudy.7 mph82%30.42 "Hg7 mi
8:51 AM59 °FPartly sunny.8 mph82%30.42 "Hg7 mi
8:22 AM59 °FPartly sunny.6 mph82%30.41 "Hg7 mi
7:45 AM59 °FPassing clouds.5 mph77%30.40 "Hg8 mi
7:22 AM61 °FPassing clouds.5 mph72%30.40 "Hg8 mi
6:48 AM61 °FPassing clouds.5 mph77%29.86 "Hg8 mi
5:47 AM61 °FMostly cloudy.7 mph77%30.40 "Hg10 mi
4:47 AM61 °FMostly cloudy.7 mph72%30.39 "Hg12 mi
3:47 AM61 °FMostly cloudy.5 mph72%29.90 "Hg12 mi
2:54 AM61 °FOvercast.8 mph72%30.42 "Hg12 mi
12:52 AM63 °FOvercast.7 mph64%29.93 "Hg12 mi
11:49 PM
Jul 29
64 °FPartly cloudy.10 mph60%30.42 "Hg12 mi
10:53 PM64 °FPartly cloudy.10 mph60%30.41 "Hg12 mi
Weather by CustomWeather, © 2014

See weather overviewHow to use our weather pages